Location: Blangy-Tronville
(49.8790°N, 2.4226°E)
Time: 03:14:36
(UTC+00:00)

CZ-4C R/B - Pass Details

Date: 18 November 2025
Orbit: 487 x 1492 km, 63.4° (Epoch: 04 December)

Event Time Altitude Azimuth Distance (km) Brightness Sun altitude
Rises 16:54:08 0° 261° (W) 2,888 7.1 -8.3°
Reaches altitude 10° 16:56:23 10° 272° (W) 2,099 5.6 -8.7°
Maximum altitude 17:00:41 32° 336° (NNW) 1,322 3.3 -9.3°
Drops below altitude 10° 17:06:06 10° 38° (NE) 2,668 4.3 -10.1°
Enters shadow 17:06:46 - 41° (NE) 2,900 4.5 -10.2°
